Location: Innsbruck
(47.2657°N, 11.3914°E)
Time: 02:03:12
(UTC+02:00)

Envisat - Pass Details

Date: 05 February 2023
Orbit: 763 x 765 km, 98.2° (Epoch: 28 March)

Event Time Altitude Azimuth Distance (km) Brightness Sun altitude
Rises 05:26:54 0° 5° (N) 3,245 6.3 -22.1°
Reaches altitude 10° 05:29:26 10° 355° (N) 2,314 5.4 -21.6°
Enters shadow 05:32:08 25° 329° (NNW) 1,525 4.2 -21.2°
